EW9807 Weather Reports


time (UTC)temp
C
wind
direction
speed
KPH
gust
KPH
rain 1hr
cm
rain 24hr
cm
rain mn
cm
humidity
%
barometer
mb
20260507111044 20 184 4.8 11.3 0.00 1.57 1.04 96 1009.5
20260507110555 19 205 1.6 14.5 0.00 1.57 1.04 96 1009.2
20260507110510 19 190 1.6 14.5 0.00 1.57 1.04 96 1007.9
20260507105557 19 223 6.4 12.9 0.00 1.57 1.04 96 1009.2
20260507105107 19 177 3.2 9.7 0.00 1.57 1.04 96 1009.2
20260507104059 19 195 4.8 14.5 0.03 1.57 1.04 96 1009.5
20260507103548 19 209 3.2 8.0 0.03 1.57 1.04 96 1009.5
20260507103058 19 188 1.6 9.7 0.03 1.57 1.04 96 1009.6
20260507102547 19 162 3.2 9.7 0.08 1.57 1.04 96 1009.8
20260507101547 19 196 3.2 6.4 0.13 1.57 1.04 96 1009.7
20260507101053 19 205 1.6 6.4 0.15 1.57 1.04 96 1009.7
20260507100600 19 130 1.6 4.8 0.18 1.57 1.04 96 1009.8
20260507100140 19 195 0.0 4.8 0.18 1.57 1.04 96 1008.6
20260507095602 19 215 1.6 4.8 0.23 1.57 1.04 96 1009.9
20260507095051 19 188 0.0 8.0 0.33 1.57 1.04 96 1009.9
20260507094602 19 188 3.2 8.0 0.36 1.55 1.02 96 1010.1
20260507094047 19 196 3.2 4.8 0.36 1.55 1.02 96 1009.8
20260507093600 19 63 1.6 4.8 0.36 1.55 1.02 96 1009.4
20260507093050 19 74 0.0 8.0 0.36 1.55 1.02 96 1009.6
20260507092045 19 179 1.6 4.8 0.30 1.47 0.94 96 1009.8
20260507091556 19 182 0.0 4.8 0.28 1.45 0.91 96 1010.5
20260507091106 19 182 1.6 4.8 0.25 1.42 0.89 96 1010.4
20260507090552 19 110 1.6 4.8 0.23 1.40 0.86 96 1010.0
20260507090100 19 110 1.6 4.8 0.23 1.40 0.86 96 1009.7
20260507085101 19 162 4.8 8.0 0.08 1.24 0.71 96 1010.7
20260507084546 19 158 1.6 3.2 0.03 1.19 0.66 96 1011.3
20260507084054 19 162 0.0 3.2 0.05 1.19 0.66 96 1010.8
20260507083602 19 162 0.0 4.8 0.05 1.19 0.66 96 1011.0
20260507082559 19 159 1.6 4.8 0.03 1.17 0.64 96 1011.1
20260507082047 19 168 1.6 6.4 0.03 1.17 0.64 96 1011.0
20260507081557 19 162 1.6 8.0 0.03 1.17 0.64 96 1010.9
20260507081046 19 176 3.2 8.0 0.03 1.17 0.64 96 1010.8
20260507080550 19 179 0.0 8.0 0.03 1.17 0.64 96 1010.8
20260507080057 19 176 1.6 6.4 0.03 1.17 0.64 96 1010.9
20260507075602 19 176 3.2 9.7 0.03 1.17 0.64 96 1011.0
20260507075049 19 183 3.2 9.7 0.05 1.17 0.64 96 1011.1
20260507074601 19 162 1.6 8.0 0.05 1.17 0.64 96 1011.0
20260507074050 19 172 0.0 8.0 0.03 1.14 0.61 96 1011.1
20260507073601 19 146 1.6 8.0 0.05 1.14 0.61 96 1011.0
20260507072555 19 156 1.6 6.4 0.05 1.14 0.61 96 1011.3
20260507072102 19 169 1.6 6.4 0.05 1.14 0.61 96 1011.2
20260507071551 19 188 1.6 6.4 0.08 1.14 0.61 95 1011.2
20260507071101 19 217 3.2 6.4 0.08 1.14 0.61 95 1011.1
20260507070547 19 146 1.6 4.8 0.10 1.14 0.61 95 1011.0
20260507070056 19 177 0.0 8.0 0.10 1.14 0.61 95 1011.0
20260507065602 19 184 1.6 4.8 0.10 1.14 0.61 95 1011.0
20260507065051 19 148 0.0 3.2 0.10 1.12 0.58 95 1010.5
20260507064600 19 166 0.0 3.2 0.10 1.12 0.58 95 1010.6
20260507064051 19 166 1.6 6.4 0.13 1.12 0.58 95 1010.4
20260507063601 19 179 1.6 6.4 0.10 1.09 0.56 95 1010.9
20260507063049 19 149 3.2 8.0 0.13 1.09 0.56 95 1010.8
20260507062552 20 146 1.6 8.0 0.13 1.09 0.56 95 1010.9
20260507062102 20 200 3.2 16.1 0.15 1.09 0.56 95 1010.9
20260507061551 20 201 1.6 16.1 0.13 1.07 0.53 95 1010.5
20260507061044 20 185 1.6 9.7 0.23 1.07 0.53 95 1011.6
20260507060554 20 248 3.2 8.0 0.25 1.04 0.51 95 1011.6
20260507060059 20 184 1.6 16.1 0.30 1.04 0.51 95 1011.8
20260507060012 19 227 1.6 16.1 0.30 1.04 0.51 95 1010.6
20260507055055 20 123 3.2 14.5 0.33 1.02 0.48 95 1011.8
20260507054059 20 214 8.0 19.3 0.38 0.99 0.46 95 1011.8
20260507053548 20 155 4.8 16.1 0.38 0.99 0.46 95 1011.8
20260507052057 20 193 6.4 24.1 0.36 0.94 0.41 95 1011.8
20260507051546 20 160 8.0 24.1 0.33 0.91 0.41 95 1012.2
20260507051057 20 173 4.8 19.3 0.28 0.84 0.30 95 1013.0
20260507050546 20 176 11.3 19.3 0.23 0.79 0.25 95 1013.5
20260507050057 20 183 6.4 16.1 0.20 0.74 0.20 95 1013.2
20260507045601 20 198 6.4 16.1 0.18 0.71 0.18 95 1012.8
20260507044057 20 161 3.2 16.1 0.08 0.61 0.08 95 1012.5
20260507042545 20 174 4.8 12.9 0.05 0.58 0.05 94 1012.5
20260507042055 20 197 3.2 12.9 0.05 0.58 0.05 94 1012.5
20260507041545 20 134 3.2 11.3 0.05 0.58 0.05 94 1012.6
20260507040115 20 225 4.8 8.0 0.00 0.53 0.00 94 1012.9
20260507035556 20 176 3.2 9.7 0.00 0.53 0.53 94 1013.2
20260507035103 20 204 3.2 9.7 0.00 0.53 0.53 94 1012.7
20260507034549 20 184 1.6 6.4 0.00 0.53 0.53 94 1012.4
20260507034059 20 194 1.6 6.4 0.00 0.53 0.53 94 1012.4
20260507033548 20 184 0.0 6.4 0.00 0.53 0.53 94 1012.6
20260507033056 20 184 3.2 6.4 0.00 0.53 0.53 94 1012.4
20260507032553 20 160 3.2 9.7 0.03 0.53 0.53 94 1012.5
20260507032103 20 166 3.2 11.3 0.05 0.53 0.53 94 1012.6
20260507031554 20 174 4.8 16.1 0.08 0.53 0.53 94 1012.7
20260507031102 20 181 6.4 16.1 0.08 0.53 0.53 94 1013.0
20260507030555 20 216 4.8 11.3 0.08 0.53 0.53 94 1012.7
20260507030509 20 212 4.8 11.3 0.08 0.53 0.53 94 1011.3
20260507025552 21 262 4.8 17.7 0.10 0.53 0.53 94 1013.7
20260507025101 21 225 4.8 17.7 0.13 0.53 0.53 94 1013.7
20260507024547 21 193 4.8 17.7 0.15 0.53 0.53 94 1013.3
20260507024059 21 153 8.0 17.7 0.15 0.53 0.53 94 1013.3
20260507022552 21 167 3.2 4.8 0.30 0.51 0.51 94 1013.5
20260507022057 21 204 0.0 3.2 0.28 0.48 0.48 94 1013.4
20260507021547 21 204 0.0 0.0 0.25 0.46 0.46 94 1013.0
20260507021058 21 204 0.0 1.6 0.28 0.46 0.46 94 1012.7
20260507020545 21 204 0.0 1.6 0.28 0.46 0.46 94 1012.6
20260507020053 21 204 0.0 0.0 0.30 0.46 0.46 94 1012.5
20260507015600 21 204 0.0 0.0 0.43 0.43 0.43 93 1012.8
20260507015050 21 204 0.0 0.0 0.41 0.41 0.41 93 1012.8
20260507014602 21 204 0.0 0.0 0.38 0.38 0.38 93 1012.8
20260507014051 21 204 0.0 0.0 0.38 0.38 0.38 93 1012.4
20260507013600 21 204 0.0 0.0 0.36 0.36 0.36 92 1012.5
20260507013107 21 205 0.0 0.0 0.23 0.23 0.23 92 1012.9
20260507012550 21 205 0.0 0.0 0.20 0.20 0.20 91 1013.2
20260507012057 22 205 0.0 0.0 0.20 0.20 0.20 90 1012.8
20260507011551 22 205 0.0 0.0 0.20 0.20 0.20 89 1012.8
20260507011102 22 205 0.0 0.0 0.18 0.18 0.18 87 1012.9
20260507010554 23 205 0.0 3.2 0.18 0.18 0.18 85 1013.0
20260507005550 24 186 1.6 4.8 0.00 0.00 0.00 77 1013.1
20260507005056 24 188 1.6 6.4 0.00 0.00 0.00 76 1012.7
20260507004604 24 180 3.2 9.7 0.00 0.00 0.00 76 1012.8
20260507003054 24 157 3.2 11.3 0.00 0.00 0.00 76 1012.8
20260507002557 24 196 3.2 11.3 0.00 0.00 0.00 76 1012.7
20260507002045 25 154 3.2 11.3 0.00 0.00 0.00 75 1012.7
20260507001555 25 195 3.2 11.3 0.00 0.00 0.00 75 1012.7
20260507000559 25 170 6.4 12.9 0.00 0.00 0.00 74 1012.7
20260507000051 25 208 6.4 12.9 0.00 0.00 0.00 74 1012.7
20260506235557 25 243 4.8 8.0 0.00 0.00 0.00 74 1012.8
20260506235044 25 196 4.8 12.9 0.00 0.00 0.00 74 1012.6
20260506234553 25 190 6.4 12.9 0.00 0.00 0.00 74 1012.3
20260506234042 25 193 3.2 9.7 0.00 0.00 0.00 74 1012.1
20260506233555 25 182 3.2 8.0 0.00 0.00 0.00 74 1011.9
20260506232552 25 233 1.6 8.0 0.00 0.00 0.00 73 1012.2
20260506232102 25 153 1.6 8.0 0.00 0.00 0.00 73 1012.1
20260506231551 25 218 3.2 9.7 0.00 0.00 0.00 73 1012.4
20260506231102 25 200 3.2 11.3 0.00 0.00 0.00 72 1012.5
20260506230547 25 200 3.2 9.7 0.00 0.00 0.00 72 1012.2
20260506230056 25 195 3.2 11.3 0.00 0.00 0.00 72 1012.2
20260506225603 25 184 4.8 11.3 0.00 0.00 0.00 71 1012.4
20260506224603 25 169 3.2 11.3 0.00 0.00 0.00 71 1012.2
20260506224048 25 158 3.2 12.9 0.00 0.00 0.00 71 1012.4
20260506223554 25 198 3.2 12.9 0.00 0.00 0.00 71 1012.6
20260506223506 25 216 3.2 12.9 0.00 0.00 0.00 71 1011.2
20260506222547 25 163 3.2 8.0 0.00 0.00 0.00 71 1012.4
20260506222056 25 167 3.2 11.3 0.00 0.00 0.00 71 1012.3
20260506221603 26 175 1.6 11.3 0.00 0.00 0.00 71 1012.4
20260506221052 26 166 3.2 14.5 0.00 0.00 0.00 71 1012.5
20260506220052 26 249 3.2 12.9 0.00 0.00 0.00 69 1012.3
20260506215103 26 184 4.8 16.1 0.00 0.00 0.00 69 1012.1
20260506214550 26 148 4.8 16.1 0.00 0.00 0.00 68 1011.9
20260506213551 26 227 4.8 12.9 0.00 0.00 0.00 69 1012.2
20260506213502 26 165 3.2 12.9 0.00 0.00 0.00 69 1010.8
20260506212601 26 241 8.0 17.7 0.00 0.00 0.00 69 1012.3
20260506212051 26 231 6.4 14.5 0.00 0.00 0.00 69 1012.4
20260506211558 26 113 3.2 16.1 0.00 0.00 0.00 70 1012.4
20260506211102 26 214 4.8 16.1 0.00 0.00 0.00 70 1012.3
20260506210550 26 148 4.8 12.9 0.00 0.00 0.00 70 1012.5
20260506205550 26 197 8.0 16.1 0.00 0.00 0.00 68 1012.5
20260506204047 26 203 3.2 16.1 0.00 0.00 0.00 69 1013.0
20260506203049 26 262 4.8 12.9 0.00 0.00 0.00 69 1013.1
20260506202558 26 208 4.8 14.5 0.00 0.00 0.00 68 1013.2
20260506201552 26 183 4.8 20.9 0.00 0.00 0.00 70 1013.4
20260506201102 26 169 8.0 20.9 0.00 0.00 0.00 69 1013.4
20260506200550 26 231 6.4 17.7 0.00 0.00 0.00 70 1013.5
20260506200059 26 248 8.0 17.7 0.00 0.00 0.00 69 1013.5
20260506195602 26 264 6.4 19.3 0.00 0.00 0.00 67 1013.7
20260506195049 26 203 8.0 19.3 0.00 0.00 0.00 68 1013.9
20260506194559 26 169 3.2 11.3 0.00 0.00 0.00 67 1014.0
20260506194052 26 193 3.2 12.9 0.00 0.00 0.00 67 1014.1
20260506192558 26 169 3.2 14.5 0.00 0.00 0.00 66 1014.1
20260506192048 26 178 6.4 17.7 0.00 0.00 0.00 66 1014.4
20260506191556 26 192 6.4 17.7 0.00 0.00 0.00 68 1014.6
20260506191045 26 160 6.4 17.7 0.00 0.00 0.00 67 1014.6
20260506190556 26 181 4.8 12.9 0.00 0.00 0.00 66 1014.5
20260506190046 26 193 6.4 12.9 0.00 0.00 0.00 68 1014.8
20260506185101 25 198 6.4 16.1 0.00 0.00 0.00 66 1014.8
20260506184552 26 185 6.4 14.5 0.00 0.00 0.00 66 1014.7
20260506184102 26 169 6.4 16.1 0.00 0.00 0.00 65 1014.9
20260506183551 26 266 6.4 16.1 0.00 0.00 0.00 65 1014.9
20260506182053 26 191 3.2 16.1 0.00 0.00 0.00 66 1014.8
20260506181601 26 172 8.0 16.1 0.00 0.00 0.00 66 1014.8
20260506181053 25 244 3.2 12.9 0.00 0.00 0.00 66 1014.7
20260506180559 25 212 6.4 12.9 0.00 0.00 0.00 66 1014.9
20260506180106 25 188 4.8 11.3 0.00 0.00 0.00 67 1014.9
20260506175554 25 197 4.8 14.5 0.00 0.00 0.00 66 1014.8
20260506175102 25 240 6.4 14.5 0.00 0.00 0.00 66 1014.7
20260506174546 26 171 8.0 19.3 0.00 0.00 0.00 65 1014.7
20260506174058 26 232 6.4 19.3 0.00 0.00 0.00 65 1014.6
20260506173547 26 179 6.4 14.5 0.00 0.00 0.00 65 1014.6
20260506173054 27 249 4.8 11.3 0.00 0.00 0.00 64 1014.6
20260506172602 27 203 4.8 14.5 0.00 0.00 0.00 64 1014.7
20260506171545 26 172 3.2 11.3 0.00 0.00 0.00 69 1014.8
20260506171056 26 171 3.2 12.9 0.00 0.00 0.00 67 1014.9
20260506170603 25 181 8.0 22.5 0.00 0.00 0.00 68 1014.9
20260506170125 24 214 6.4 22.5 0.00 0.00 0.00 68 1015.0
20260506165602 24 201 4.8 19.3 0.00 0.00 0.00 70 1015.1
20260506165051 24 204 4.8 9.7 0.00 0.00 0.00 70 1015.3
20260506164602 24 236 4.8 16.1 0.00 0.00 0.00 71 1015.3
20260506164050 24 192 8.0 16.1 0.00 0.00 0.00 70 1015.5
20260506163108 24 195 8.0 20.9 0.00 0.00 0.00 69 1015.5
20260506162046 24 243 4.8 16.1 0.00 0.00 0.00 71 1015.6
20260506161554 24 240 3.2 17.7 0.00 0.00 0.00 71 1015.8
20260506161046 24 182 8.0 17.7 0.00 0.00 0.00 70 1015.9
20260506160558 24 232 3.2 17.7 0.00 0.00 0.00 71 1015.9
20260506160049 23 229 6.4 17.7 0.00 0.00 0.00 72 1016.1
20260506155548 23 169 6.4 14.5 0.00 0.00 0.00 74 1016.2
20260506155101 23 227 6.4 14.5 0.00 0.00 0.00 74 1016.2
20260506154550 23 159 4.8 14.5 0.00 0.00 0.00 75 1016.3
20260506153552 22 176 4.8 12.9 0.00 0.00 0.00 74 1016.5
20260506153057 22 252 4.8 14.5 0.00 0.00 0.00 75 1016.4
20260506152602 22 229 6.4 19.3 0.00 0.00 0.00 76 1016.4
20260506152052 22 252 11.3 19.3 0.00 0.00 0.00 75 1016.4
20260506151602 22 240 6.4 14.5 0.00 0.00 0.00 75 1016.3
20260506151050 22 264 4.8 19.3 0.00 0.00 0.00 75 1016.3
20260506145555 22 182 6.4 16.1 0.00 0.00 0.00 74 1016.2
20260506145046 22 143 8.0 17.7 0.00 0.00 0.00 73 1016.4
20260506144557 22 213 9.7 19.3 0.00 0.00 0.00 74 1016.3
20260506143052 22 177 3.2 16.1 0.00 0.00 0.00 76 1016.0
20260506142557 22 252 3.2 8.0 0.00 0.00 0.00 76 1015.9
20260506140556 21 219 4.8 14.5 0.00 0.00 0.00 79 1015.9
20260506140045 21 179 6.4 14.5 0.00 0.00 0.00 80 1015.7
20260506135555 21 189 8.0 17.7 0.00 0.00 0.00 81 1015.4
20260506135101 20 212 6.4 17.7 0.00 0.00 0.00 83 1015.4
20260506134102 20 178 6.4 14.5 0.00 0.00 0.00 84 1015.2
20260506133553 20 208 3.2 14.5 0.00 0.00 0.00 84 1015.1
20260506133103 20 167 8.0 14.5 0.00 0.00 0.00 84 1015.1
20260506132549 20 229 3.2 12.9 0.00 0.00 0.00 85 1015.2
20260506132059 20 176 6.4 12.9 0.00 0.00 0.00 85 1015.2
20260506131549 20 173 4.8 9.7 0.00 0.00 0.00 85 1015.2
20260506131055 20 172 4.8 17.7 0.00 0.00 0.00 86 1015.1
20260506130544 20 178 3.2 17.7 0.00 0.00 0.00 86 1015.1
20260506130055 20 193 8.0 14.5 0.00 0.00 0.00 86 1014.9
20260506125559 19 186 3.2 11.3 0.00 0.00 0.00 88 1015.1
20260506125051 19 186 6.4 12.9 0.00 0.00 0.00 88 1015.2
20260506124600 18 141 6.4 12.9 0.00 0.00 0.00 88 1015.3
20260506124052 18 153 3.2 11.3 0.00 0.00 0.00 88 1015.3
20260506123601 18 172 3.2 11.3 0.00 0.00 0.00 88 1015.1
20260506123106 18 196 1.6 9.7 0.00 0.00 0.00 88 1015.0
20260506122548 18 174 6.4 9.7 0.00 0.00 0.00 88 1015.1
20260506122057 18 182 4.8 9.7 0.00 0.00 0.00 88 1015.0
20260506121546 18 217 1.6 9.7 0.00 0.00 0.00 88 1015.0
20260506121059 18 207 1.6 8.0 0.00 0.00 0.00 88 1014.9
20260506115547 18 175 1.6 4.8 0.00 0.00 0.00 88 1014.8
20260506115057 17 205 1.6 8.0 0.00 0.00 0.00 88 1014.7
20260506114100 17 202 3.2 8.0 0.00 0.00 0.00 88 1014.6
20260506113551 17 193 3.2 8.0 0.00 0.00 0.00 88 1014.6
20260506113101 17 152 4.8 8.0 0.00 0.00 0.00 88 1014.6
20260506112058 17 206 3.2 6.4 0.00 0.00 0.00 87 1014.6
20260506111549 17 191 1.6 6.4 0.00 0.00 0.00 87 1014.6